ORBCOMM FM 27

Satellite information

Favourite Embed

Satellite Type and Status

PAYLOADIN ORBIT

Key statistics

Satellite ORBCOMM FM 27 at a glance.

Uptime

9723

Days in orbit

Revolutions

≈ 14.4

Per day

Orbit

LEO

Low Earth Orbit

Inclination

45.0

Latest

Satellite identification and parameters

Extended collection of information and parameters for ORBCOMM FM 27.

Object identification

Identified? True

Debris? False

Object name: ORBCOMM FM 27

International designator: 1998-053G

Object number (NORAD): 25481

Object ID (CCSDS): 25481

Country: ORBITAL TELECOMMUNICATIONS SATELLITE (GLOBALSTAR) (ORB)

Current information (Y/N): Y

RCS size: MEDIUM

Orbital parameters

Period: 100.139 minutes

Inclination: 45.0045 deg

SMA: 7143.241 km

Apoapsis: 766.781 km

Periapsis: 763.43 km

RAAN: 103.1798 deg

Eccentricy: 0.0002346

Argument of periapsis: 315.113 deg

Mean anomaly: 44.9528 deg

Mean motion: 14.3800318 rev/day

Mean motion (dot): 0.00001601 rev/day2

B* drag term: 0.00057086 1/REarth

Two-line elements (TLE)

Creation date: May 7, 2025, 3:14 a.m.

Reference frame: TEME

Reference center: EARTH

Epoch: May 6, 2025, 10:19 p.m. UTC

TLE line 0: 0 ORBCOMM FM 27

TLE line 1: 1 25481U 98053G 25126.93044466 .00001601 00000-0 57086-3 0 9994

TLE line 2: 2 25481 45.0045 103.1798 0002346 315.1130 44.9528 14.38003180391731

Live tracking on map

Real-time ground track for satellite ORBCOMM FM 27.

In-orbit conjunctions

There are no conjunctions computed for ORBCOMM FM 27, at the moment. Check back to stay up to date, as we update our databases every day.

Go to all conjunctions

Associated space launch

ORBCOMM FM 27 was lifted into orbit during the mission ‘Pegasus XL HAPS | Orbcomm-C1 - C8’, on board a Pegasus XL HAPS space rocket.

The launch took place on Sept. 23, 1998, 5:06 a.m. from Wallops Flight Facility.

For more information about the launch, click the button.

Launch to space Pegasus XL HAPS | Orbcomm-C1 - C8
Pegasus XL HAPS | Orbcomm-C1 - C8

Agency: N/A

Status: Launch Successful

Launch date: Sept. 23, 1998, 5:06 a.m. UTC

Rocket: Pegasus XL HAPS

Launch pad: Wallops Flight Facility

Location: Air launch to orbit

...

Latest news about this satellite

There are no fresh news available about this satellite. Check back as we update our databases every day.


Newsletter sign-up

Weekly statistics, charts and insights to help you stay on top of the space industry.